Year,Month,Day,Hour,Minute,Value (Times are PST for temperature in C)
2015,02,13,08,08,8.70
2015,02,13,08,09,8.70
2015,02,13,08,10,8.70
2015,02,13,08,11,8.70
2015,02,13,08,12,8.70
2015,02,13,08,13,8.70
2015,02,13,08,14,8.70
2015,02,13,08,15,8.70
2015,02,13,08,16,8.70
2015,02,13,08,17,8.70
2015,02,13,08,18,8.70
2015,02,13,10,50,11.70
2015,02,13,10,51,11.70
2015,02,13,10,52,11.80
2015,02,13,10,53,11.80
2015,02,13,10,54,11.90
2015,02,13,10,55,11.90
2015,02,13,10,56,11.90
2015,02,13,10,57,12.00
2015,02,13,10,58,12.00
2015,02,13,10,59,12.00
2015,02,13,11,00,12.00
2015,02,13,11,01,12.00
2015,02,13,11,02,12.00
2015,02,13,11,03,12.00
2015,02,13,11,04,12.00
2015,02,13,11,05,12.10
2015,02,13,11,06,12.10
2015,02,13,11,07,12.20
2015,02,13,11,08,12.20
2015,02,13,11,09,12.20
2015,02,13,11,10,12.20
2015,02,13,11,11,12.30
2015,02,13,11,12,12.20
2015,02,13,11,13,12.20
2015,02,13,11,14,12.20
2015,02,13,11,15,12.20
2015,02,13,11,16,12.10
2015,02,13,11,17,12.10
2015,02,13,11,18,12.10
2015,02,13,11,19,12.20
2015,02,13,11,20,12.20
2015,02,13,11,21,12.20
2015,02,13,11,22,12.30
2015,02,13,11,23,12.30
2015,02,13,11,24,12.30
2015,02,13,11,25,12.40
2015,02,13,11,26,12.40
2015,02,13,11,27,12.50
2015,02,13,11,28,12.50
2015,02,13,11,29,12.50
2015,02,13,11,30,12.50
2015,02,13,11,31,12.50
2015,02,13,11,32,12.60
2015,02,13,11,33,12.60
2015,02,13,11,34,12.60
2015,02,13,11,35,12.60
2015,02,13,11,36,12.70
2015,02,13,11,37,12.70
2015,02,13,11,38,12.70
2015,02,13,11,39,12.70
2015,02,13,11,40,12.80
2015,02,13,11,41,12.80
2015,02,13,11,42,12.80
2015,02,13,11,43,12.80
2015,02,13,11,44,12.80
2015,02,13,11,45,12.80
2015,02,13,11,46,12.80
2015,02,13,11,47,12.80
2015,02,13,11,48,12.80
2015,02,13,11,49,12.80
2015,02,13,11,50,12.80
2015,02,13,11,51,12.80
2015,02,13,11,52,12.80
2015,02,13,11,53,12.70
2015,02,13,11,54,12.70
2015,02,13,11,55,12.70
2015,02,13,11,56,12.60
2015,02,13,11,57,12.60
2015,02,13,11,58,12.60
2015,02,13,11,59,12.50
2015,02,13,12,00,12.50
2015,02,13,12,01,12.40
2015,02,13,12,02,12.40
2015,02,13,12,03,12.40
2015,02,13,12,04,12.30
2015,02,13,12,05,12.30
2015,02,13,12,06,12.30
2015,02,13,12,07,12.30
2015,02,13,12,08,12.30
2015,02,13,12,09,12.30
2015,02,13,12,10,12.30
2015,02,13,12,11,12.30
2015,02,13,12,12,12.30
2015,02,13,12,13,12.30
2015,02,13,12,14,12.30
2015,02,13,12,15,12.30
2015,02,13,12,16,12.30
2015,02,13,12,17,12.20
2015,02,13,12,18,12.20
2015,02,13,12,19,12.20
2015,02,13,12,20,12.20
2015,02,13,12,21,12.30
2015,02,13,12,22,12.30
2015,02,13,12,23,12.30
2015,02,13,12,24,12.40
2015,02,13,12,25,12.40
2015,02,13,12,26,12.40
2015,02,13,12,27,12.40
2015,02,13,12,28,12.40
2015,02,13,12,29,12.40
2015,02,13,12,30,12.50
2015,02,13,12,31,12.60
2015,02,13,12,32,12.60
2015,02,13,12,33,12.60
2015,02,13,12,34,12.70
2015,02,13,12,35,12.70
2015,02,13,12,36,12.70
2015,02,13,12,37,12.70
2015,02,13,12,38,12.70
2015,02,13,12,39,12.60
2015,02,13,12,40,12.60
2015,02,13,12,41,12.60
2015,02,13,12,42,12.60
2015,02,13,12,43,12.60
2015,02,13,12,44,12.60
2015,02,13,12,45,12.60
2015,02,13,12,46,12.60
2015,02,13,12,47,12.60
2015,02,13,12,48,12.70
2015,02,13,12,49,12.70
2015,02,13,12,50,12.70
2015,02,13,12,51,12.70
2015,02,13,12,52,12.70
2015,02,13,12,53,12.70
2015,02,13,12,54,12.70
2015,02,13,12,55,12.70
2015,02,13,12,56,12.70
2015,02,13,12,57,12.70
2015,02,13,12,58,12.80
2015,02,13,12,59,12.80
2015,02,13,13,00,12.80
2015,02,13,13,01,12.80
2015,02,13,13,02,12.80
2015,02,13,13,03,13.00
2015,02,13,13,04,13.10
2015,02,13,13,05,13.10
2015,02,13,13,06,13.20
2015,02,13,13,07,13.30
2015,02,13,13,08,13.30
2015,02,13,13,09,13.30
2015,02,13,13,10,13.30
2015,02,13,13,11,13.30
2015,02,13,13,12,13.30
2015,02,13,13,13,13.30
2015,02,13,13,14,13.30
2015,02,13,13,15,13.30
2015,02,13,13,16,13.30
2015,02,13,13,17,13.40
2015,02,13,13,18,13.40
2015,02,13,13,19,13.40
2015,02,13,13,20,13.40
2015,02,13,13,21,13.40
2015,02,13,13,22,13.40
2015,02,13,13,23,13.40
2015,02,13,13,24,13.30
2015,02,13,13,25,13.30
2015,02,13,13,26,13.30
2015,02,13,13,27,13.30
2015,02,13,13,28,13.30
2015,02,13,13,29,13.30
2015,02,13,13,30,13.20
2015,02,13,13,31,13.20
2015,02,13,13,32,13.20
2015,02,13,13,33,13.20
2015,02,13,13,34,13.10
2015,02,13,13,35,13.10
2015,02,13,13,36,13.10
2015,02,13,13,37,13.10
2015,02,13,13,38,13.10
2015,02,13,13,39,13.10
2015,02,13,13,40,13.00
2015,02,13,13,41,12.90
2015,02,13,13,42,12.80
2015,02,13,13,43,12.80
2015,02,13,13,44,12.80
2015,02,13,13,45,12.80
2015,02,13,13,46,12.70
2015,02,13,13,47,12.50
2015,02,13,13,48,12.50
2015,02,13,13,49,12.30
2015,02,13,13,50,12.30
2015,02,13,13,51,12.30
2015,02,13,13,52,12.30
2015,02,13,13,53,12.20
2015,02,13,13,54,12.20
2015,02,13,13,55,12.10
2015,02,13,13,56,12.10
2015,02,13,13,57,12.00
2015,02,13,13,58,11.90
2015,02,13,13,59,11.80
2015,02,13,14,00,11.80
2015,02,13,14,01,11.80
2015,02,13,14,02,11.80
2015,02,13,14,03,11.80
2015,02,13,14,04,11.80
2015,02,13,14,05,11.80
2015,02,13,14,06,11.80
2015,02,13,14,07,11.80
2015,02,13,14,08,11.80
2015,02,13,14,09,11.70
2015,02,13,14,10,11.70
2015,02,13,14,11,11.70
2015,02,13,14,12,11.70
2015,02,13,14,13,11.60
2015,02,13,14,14,11.60
2015,02,13,14,15,11.60
2015,02,13,14,16,11.60
2015,02,13,14,17,11.60
2015,02,13,14,18,11.50
2015,02,13,14,19,11.40
2015,02,13,14,20,11.30
2015,02,13,14,21,11.10
2015,02,13,14,22,11.00
2015,02,13,14,23,10.90
2015,02,13,14,24,10.90
2015,02,13,14,25,10.80
2015,02,13,14,26,10.80
2015,02,13,14,27,10.80
2015,02,13,14,28,10.80
2015,02,13,14,29,10.80
2015,02,13,14,30,10.80
2015,02,13,14,31,10.80
2015,02,13,14,32,10.80
2015,02,13,14,33,10.80
2015,02,13,14,34,10.80
2015,02,13,14,35,10.80
2015,02,13,14,36,10.80
2015,02,13,15,09,10.80
2015,02,13,15,10,10.80
2015,02,13,15,11,10.80
2015,02,13,15,12,10.80
2015,02,13,15,13,10.80
2015,02,13,15,14,10.80
2015,02,13,15,15,10.80
2015,02,13,15,16,10.80
2015,02,13,15,17,10.80
2015,02,13,15,18,10.80
2015,02,13,15,19,10.80
2015,02,13,15,20,10.80
